Location: Unspecified
(0.0000°N, 0.0000°E)
Time: 17:05:00
(UTC+00:00)

Altair - Pass Details

Date: 10 February 2023
Orbit: 1501 x 1682 km, 47.2° (Epoch: 19 March)

Event Time Altitude Azimuth Distance (km) Brightness Sun altitude
Exits shadow 03:01:36 40° 162° (SSE) 2,287 8.4 -46.2°
Drops below altitude 10° 03:07:18 10° 149° (SSE) 3,862 10.0 -44.8°
Sets 03:10:25 0° 146° (SE) 4,827 10.7 -44.1°
